| time (UTC) | temp F | wind direction | speed MPH | gust MPH | rain 1hr in | rain 24hr in | rain mn in | humidity % | barometer mb |
| 20260505003339 | 42 | 45 | 0.0 | 0.0 | 0.00 | 0.00 | 0.00 | 76 | 1013.3 |
| 20260505002841 | 42 | 45 | 0.0 | 0.0 | 0.00 | 0.00 | 0.00 | 76 | 1013.3 |
| 20260505002339 | 42 | 45 | 0.0 | 0.0 | 0.00 | 0.00 | 0.00 | 76 | 1013.3 |
| 20260505001839 | 42 | 45 | 0.0 | 0.0 | 0.00 | 0.00 | 0.00 | 75 | 1013.3 |
| 20260505001339 | 43 | 45 | 0.0 | 0.0 | 0.00 | 0.00 | 0.00 | 75 | 1013.4 |
| 20260505000340 | 44 | 45 | 0.0 | 0.0 | 0.00 | 0.00 | 0.00 | 75 | 1013.3 |
| 20260504234339 | 44 | 45 | 0.0 | 0.0 | 0.00 | 0.00 | 0.00 | 74 | 1013.5 |
| 20260504233839 | 44 | 45 | 0.0 | 0.0 | 0.00 | 0.00 | 0.00 | 74 | 1013.4 |
| 20260504233339 | 45 | 45 | 0.0 | 0.0 | 0.00 | 0.00 | 0.00 | 75 | 1013.4 |
| 20260504232839 | 45 | 45 | 0.0 | 0.0 | 0.00 | 0.00 | 0.00 | 75 | 1013.4 |
| 20260504231839 | 45 | 90 | 0.0 | 0.0 | 0.00 | 0.00 | 0.00 | 73 | 1013.3 |
| 20260504231339 | 45 | 90 | 0.0 | 0.0 | 0.00 | 0.00 | 0.00 | 73 | 1013.5 |
| 20260504230840 | 45 | 90 | 0.0 | 0.0 | 0.00 | 0.00 | 0.00 | 72 | 1013.6 |
| 20260504230339 | 46 | 90 | 0.0 | 0.0 | 0.00 | 0.00 | 0.00 | 71 | 1013.7 |
| 20260504225340 | 46 | 90 | 0.0 | 0.0 | 0.00 | 0.00 | 0.00 | 72 | 1013.6 |
| 20260504224840 | 46 | 90 | 0.0 | 0.0 | 0.00 | 0.00 | 0.00 | 72 | 1013.8 |
| 20260504223840 | 47 | 90 | 0.0 | 0.0 | 0.00 | 0.00 | 0.00 | 72 | 1013.6 |
| 20260504223342 | 47 | 113 | 0.0 | 0.0 | 0.00 | 0.00 | 0.00 | 71 | 1013.7 |
| 20260504222840 | 47 | 113 | 0.0 | 0.0 | 0.00 | 0.00 | 0.00 | 71 | 1013.9 |
| 20260504222340 | 47 | 113 | 0.0 | 0.0 | 0.00 | 0.00 | 0.00 | 70 | 1013.9 |
| 20260504221840 | 47 | 113 | 0.0 | 0.0 | 0.00 | 0.00 | 0.00 | 69 | 1013.7 |
| 20260504221340 | 48 | 113 | 0.0 | 0.0 | 0.00 | 0.00 | 0.00 | 68 | 1013.7 |
| 20260504220841 | 48 | 113 | 0.0 | 0.0 | 0.00 | 0.00 | 0.00 | 67 | 1014.0 |
| 20260504220340 | 49 | 113 | 0.0 | 0.0 | 0.00 | 0.00 | 0.00 | 67 | 1013.8 |
| 20260504215340 | 49 | 113 | 0.0 | 0.0 | 0.00 | 0.00 | 0.00 | 68 | 1013.9 |
| 20260504214841 | 50 | 113 | 0.0 | 0.0 | 0.00 | 0.00 | 0.00 | 67 | 1014.0 |
| 20260504214341 | 50 | 113 | 0.0 | 0.0 | 0.00 | 0.00 | 0.00 | 67 | 1013.8 |
| 20260504213841 | 50 | 113 | 0.0 | 0.0 | 0.00 | 0.00 | 0.00 | 67 | 1013.9 |
| 20260504213341 | 50 | 113 | 0.0 | 0.0 | 0.00 | 0.00 | 0.00 | 66 | 1013.9 |
| 20260504212840 | 51 | 45 | 0.0 | 0.0 | 0.00 | 0.00 | 0.00 | 66 | 1014.0 |
| 20260504212341 | 51 | 45 | 0.0 | 0.0 | 0.00 | 0.00 | 0.00 | 66 | 1014.1 |
| 20260504211841 | 51 | 45 | 0.0 | 0.0 | 0.00 | 0.00 | 0.00 | 65 | 1013.9 |
| 20260504210842 | 52 | 45 | 0.0 | 0.0 | 0.00 | 0.00 | 0.00 | 63 | 1014.1 |
| 20260504210341 | 53 | 45 | 0.0 | 0.0 | 0.00 | 0.00 | 0.00 | 61 | 1014.0 |
| 20260504205341 | 53 | 45 | 0.0 | 0.0 | 0.00 | 0.00 | 0.00 | 61 | 1014.0 |
| 20260504204842 | 54 | 45 | 0.0 | 0.0 | 0.00 | 0.00 | 0.00 | 60 | 1014.2 |
| 20260504204341 | 54 | 45 | 0.0 | 0.0 | 0.00 | 0.00 | 0.00 | 60 | 1014.0 |
| 20260504203841 | 55 | 68 | 0.0 | 0.0 | 0.00 | 0.00 | 0.00 | 60 | 1014.1 |
| 20260504202841 | 56 | 90 | 0.0 | 0.0 | 0.00 | 0.00 | 0.00 | 57 | 1014.0 |
| 20260504202341 | 56 | 158 | 0.0 | 0.0 | 0.00 | 0.00 | 0.00 | 57 | 1014.1 |
| 20260504201841 | 57 | 158 | 0.0 | 0.0 | 0.00 | 0.00 | 0.00 | 55 | 1014.0 |
| 20260504201341 | 58 | 158 | 0.0 | 0.0 | 0.00 | 0.00 | 0.00 | 55 | 1014.1 |
| 20260504200841 | 58 | 158 | 0.0 | 0.0 | 0.00 | 0.00 | 0.00 | 54 | 1014.0 |
| 20260504200341 | 59 | 158 | 0.0 | 0.0 | 0.00 | 0.00 | 0.00 | 53 | 1014.1 |
| 20260504195344 | 60 | 158 | 0.0 | 0.0 | 0.00 | 0.00 | 0.00 | 51 | 1014.0 |
| 20260504194342 | 60 | 158 | 0.0 | 0.0 | 0.00 | 0.00 | 0.00 | 51 | 1013.9 |
| 20260504193843 | 61 | 158 | 0.0 | 0.0 | 0.00 | 0.00 | 0.00 | 51 | 1014.0 |
| 20260504193342 | 60 | 158 | 2.0 | 5.0 | 0.00 | 0.00 | 0.00 | 52 | 1013.9 |
| 20260504192842 | 60 | 158 | 3.0 | 5.0 | 0.00 | 0.00 | 0.00 | 52 | 1013.9 |
| 20260504192342 | 60 | 203 | 1.0 | 3.0 | 0.00 | 0.00 | 0.00 | 52 | 1013.8 |
| 20260504191342 | 60 | 203 | 0.0 | 0.0 | 0.00 | 0.00 | 0.00 | 50 | 1013.9 |
| 20260504190842 | 61 | 203 | 0.0 | 0.0 | 0.00 | 0.00 | 0.00 | 50 | 1013.9 |
| 20260504190342 | 62 | 158 | 0.0 | 0.0 | 0.00 | 0.00 | 0.00 | 50 | 1013.9 |
| 20260504185843 | 62 | 158 | 0.0 | 0.0 | 0.00 | 0.00 | 0.00 | 48 | 1013.6 |
| 20260504185344 | 63 | 158 | 0.0 | 0.0 | 0.00 | 0.00 | 0.00 | 48 | 1013.6 |
| 20260504184842 | 64 | 158 | 0.0 | 0.0 | 0.00 | 0.00 | 0.00 | 47 | 1013.6 |
| 20260504184344 | 64 | 158 | 0.0 | 0.0 | 0.00 | 0.00 | 0.00 | 46 | 1013.5 |
| 20260504183843 | 65 | 158 | 0.0 | 0.0 | 0.00 | 0.00 | 0.00 | 45 | 1013.4 |
| 20260504182843 | 65 | 180 | 0.0 | 0.0 | 0.00 | 0.00 | 0.00 | 44 | 1013.4 |
| 20260504182342 | 66 | 225 | 0.0 | 0.0 | 0.00 | 0.00 | 0.00 | 44 | 1013.2 |
| 20260504181845 | 66 | 203 | 0.0 | 0.0 | 0.00 | 0.00 | 0.00 | 44 | 1013.5 |
| 20260504181343 | 67 | 158 | 0.0 | 0.0 | 0.00 | 0.00 | 0.00 | 43 | 1013.2 |
| 20260504180843 | 68 | 158 | 0.0 | 0.0 | 0.00 | 0.00 | 0.00 | 43 | 1013.4 |
| 20260504180343 | 68 | 158 | 1.0 | 4.0 | 0.00 | 0.00 | 0.00 | 42 | 1013.3 |
| 20260504175843 | 68 | 158 | 2.0 | 4.0 | 0.00 | 0.00 | 0.00 | 42 | 1013.3 |
| 20260504175343 | 69 | 158 | 1.0 | 4.0 | 0.00 | 0.00 | 0.00 | 42 | 1013.1 |
| 20260504174844 | 69 | 158 | 0.0 | 3.0 | 0.00 | 0.00 | 0.00 | 41 | 1013.3 |
| 20260504174343 | 70 | 113 | 2.0 | 5.0 | 0.00 | 0.00 | 0.00 | 41 | 1013.2 |
| 20260504173843 | 70 | 158 | 2.0 | 5.0 | 0.00 | 0.00 | 0.00 | 40 | 1013.1 |
| 20260504173343 | 71 | 158 | 0.0 | 0.0 | 0.00 | 0.00 | 0.00 | 39 | 1013.1 |
| 20260504172844 | 71 | 158 | 1.0 | 2.0 | 0.00 | 0.00 | 0.00 | 39 | 1013.1 |
| 20260504172345 | 71 | 158 | 1.0 | 2.0 | 0.00 | 0.00 | 0.00 | 39 | 1013.3 |
| 20260504171843 | 72 | 158 | 2.0 | 5.0 | 0.00 | 0.00 | 0.00 | 38 | 1013.2 |
| 20260504171343 | 72 | 158 | 3.0 | 5.0 | 0.00 | 0.00 | 0.00 | 38 | 1013.1 |
| 20260504170844 | 73 | 158 | 2.0 | 4.0 | 0.00 | 0.00 | 0.00 | 36 | 1013.1 |
| 20260504170345 | 73 | 135 | 2.0 | 3.0 | 0.00 | 0.00 | 0.00 | 35 | 1013.1 |
| 20260504150845 | 78 | 158 | 7.0 | 9.0 | 0.00 | 0.00 | 0.00 | 31 | 1013.1 |
| 20260504150345 | 78 | 158 | 10.0 | 14.0 | 0.00 | 0.00 | 0.00 | 32 | 1013.1 |
| 20260504140845 | 81 | 158 | 9.0 | 12.0 | 0.00 | 0.00 | 0.00 | 30 | 1013.6 |
| 20260504140345 | 81 | 135 | 5.0 | 6.0 | 0.00 | 0.00 | 0.00 | 30 | 1013.6 |
| 20260504130346 | 81 | 135 | 9.0 | 14.0 | 0.00 | 0.00 | 0.00 | 30 | 1014.2 |
| 20260504110350 | 82 | 180 | 7.0 | 9.0 | 0.00 | 0.00 | 0.00 | 36 | 1015.8 |
| 20260504100348 | 77 | 158 | 1.0 | 3.0 | 0.00 | 0.00 | 0.00 | 43 | 1016.8 |
| 20260504081850 | 72 | 248 | 0.0 | 0.0 | 0.00 | 0.00 | 0.00 | 52 | 1017.8 |
| 20260504081349 | 72 | 248 | 0.0 | 0.0 | 0.00 | 0.00 | 0.00 | 55 | 1017.8 |
| 20260504080850 | 71 | 315 | 0.0 | 0.0 | 0.00 | 0.00 | 0.00 | 56 | 1017.7 |
| 20260504070351 | 57 | 23 | 0.0 | 0.0 | 0.00 | 0.00 | 0.00 | 74 | 1017.7 |
| 20260504045852 | 44 | 338 | 0.0 | 0.0 | 0.00 | 0.00 | 0.00 | 83 | 1017.6 |
| 20260504044355 | 43 | 338 | 0.0 | 0.0 | 0.00 | 0.00 | 0.00 | 83 | 1017.4 |
| 20260504043852 | 43 | 338 | 0.0 | 0.0 | 0.00 | 0.00 | 0.00 | 82 | 1017.5 |
| 20260504042353 | 42 | 338 | 0.0 | 0.0 | 0.00 | 0.00 | 0.00 | 82 | 1017.5 |
| 20260504035852 | 43 | 338 | 0.0 | 0.0 | 0.00 | 0.00 | 0.00 | 81 | 1017.5 |
| 20260504035352 | 43 | 338 | 0.0 | 0.0 | 0.00 | 0.00 | 0.00 | 81 | 1017.3 |
| 20260504034352 | 43 | 338 | 0.0 | 0.0 | 0.00 | 0.00 | 0.00 | 81 | 1017.3 |
| 20260504032854 | 44 | 338 | 0.0 | 0.0 | 0.00 | 0.00 | 0.00 | 81 | 1017.3 |
| 20260504030853 | 44 | 338 | 0.0 | 0.0 | 0.00 | 0.00 | 0.00 | 80 | 1017.4 |
| 20260504024856 | 44 | 338 | 0.0 | 0.0 | 0.00 | 0.00 | 0.00 | 79 | 1017.4 |
| 20260504024354 | 44 | 338 | 0.0 | 0.0 | 0.00 | 0.00 | 0.00 | 78 | 1017.5 |
| 20260504023854 | 44 | 338 | 0.0 | 0.0 | 0.00 | 0.00 | 0.00 | 78 | 1017.4 |
| 20260504023354 | 44 | 338 | 0.0 | 0.0 | 0.00 | 0.00 | 0.00 | 77 | 1017.3 |
| 20260504021857 | 45 | 338 | 0.0 | 0.0 | 0.00 | 0.00 | 0.00 | 77 | 1017.5 |
| 20260504020853 | 45 | 338 | 0.0 | 0.0 | 0.00 | 0.00 | 0.00 | 76 | 1017.4 |
| 20260504020354 | 45 | 338 | 0.0 | 0.0 | 0.00 | 0.00 | 0.00 | 76 | 1017.5 |
| 20260504014855 | 46 | 338 | 0.0 | 0.0 | 0.00 | 0.00 | 0.00 | 76 | 1017.5 |
| 20260504014354 | 46 | 338 | 0.0 | 0.0 | 0.00 | 0.00 | 0.00 | 76 | 1017.5 |
| 20260504013854 | 47 | 338 | 0.0 | 0.0 | 0.00 | 0.00 | 0.00 | 76 | 1017.5 |
| 20260504013357 | 47 | 338 | 0.0 | 0.0 | 0.00 | 0.00 | 0.00 | 76 | 1017.6 |
| 20260504012355 | 47 | 338 | 0.0 | 0.0 | 0.00 | 0.00 | 0.00 | 76 | 1017.4 |
| 20260504010855 | 47 | 338 | 0.0 | 0.0 | 0.00 | 0.00 | 0.00 | 75 | 1017.5 |
| 20260504004856 | 48 | 338 | 0.0 | 0.0 | 0.00 | 0.00 | 0.00 | 74 | 1017.4 |
| 20260504003855 | 49 | 338 | 0.0 | 0.0 | 0.00 | 0.00 | 0.00 | 73 | 1017.4 |